This is the latest recevied weather packets stored in our database for station/object SV9FBP-13. If no packets are shown the sender has not sent any weather packets the latest 10 day(s).
| Time | Temp. | Humidity | Pressure | Rain* | Wind** | Luminosity | Snow |
|---|---|---|---|---|---|---|---|
| 1787855666 | 31.11° C | 41% | 1009.4 hPa | 0 mm | - | - | - |
| 1787854763 | 31.67° C | 38% | 1009.2 hPa | 0 mm | - | - | - |
| 1787853861 | 31.67° C | 36% | 1009.2 hPa | 0 mm | - | - | - |
| 1787852959 | 31.67° C | 36% | 1009.2 hPa | 0 mm | - | - | - |
| 1787852056 | 31.67° C | 36% | 1009 hPa | 0 mm | - | - | - |
| 1787851155 | 31.67° C | 36% | 1009.5 hPa | 0 mm | - | - | - |
| 1787850252 | 31.67° C | 39% | 1009.5 hPa | 0 mm | - | - | - |
| 1787849350 | 32.22° C | 36% | 1009.2 hPa | 0 mm | - | - | - |
| 1787848448 | 32.78° C | 31% | 1009.2 hPa | 0 mm | - | - | - |
| 1787847547 | 33.33° C | 31% | 1009.2 hPa | 0 mm | - | - | - |
| 1787846644 | 33.89° C | 32% | 1009.2 hPa | 0 mm | - | - | - |
| 1787845746 | 34.44° C | 31% | 1009.4 hPa | 0 mm | - | - | - |
| 1787844839 | 33.89° C | 33% | 1009.3 hPa | 0 mm | - | - | - |
| 1787843938 | 33.89° C | 31% | 1009.2 hPa | 0 mm | - | - | - |
| 1787843035 | 34.44° C | 32% | 1008.9 hPa | 0 mm | - | - | - |
| 1787842133 | 33.89° C | 31% | 1008.9 hPa | 0 mm | - | - | - |
| 1787841231 | 33.89° C | 31% | 1008.9 hPa | 0 mm | - | - | - |
| 1787840329 | 34.44° C | 31% | 1009 hPa | 0 mm | - | - | - |
| 1787839427 | 33.89° C | 30% | 1008.7 hPa | 0 mm | - | - | - |
| 1787838524 | 34.44° C | 31% | 1008.8 hPa | 0 mm | - | - | - |
| 1787837622 | 34.44° C | 30% | 1008.5 hPa | 0 mm | - | - | - |
| 1787836720 | 35° C | 27% | 1008.7 hPa | 0 mm | - | - | - |
| 1787835818 | 35° C | 30% | 1008.9 hPa | 0 mm | - | - | - |
| 1787834916 | 35° C | 30% | 1009 hPa | 0 mm | - | - | - |
| 1787834014 | 35° C | 30% | 1009.1 hPa | 0 mm | - | - | - |
* Rain latest hour (hover to see other rain measurements)
** Current wind speed in m/s (hover to see current wind gust speed)